Regional Weather Roundup
Issued by NWS Albany, NY

Home | Current Version | Previous Version | Text Only | Print | Product List | Glossary On
Versions: 1 2 3 4 5 6 7 8 9 10 11 12 13 14 15 16 17 18 19 20 21 22 23 24 25 26 27 28 29 30 31 32 33 34 35 36 37 38 39 40 41 42 43 44 45 46 47 48 49 50
000
ASUS41 KALY 141210
RWRALY

NEW YORK STATE HOURLY WEATHER ROUNDUP
NATIONAL WEATHER SERVICE ALBANY NY
700 AM EST SUN FEB 14 2016

NOTE: "FAIR" INDICATES FEW OR NO CLOUDS BELOW 12,000 FEET WITH NO
SIGNIFICANT WEATHER AND/OR NO OBSTRUCTIONS TO VISIBILITY.

NYZ032-033-038>043-046>054-057>066-NYZ062>081-141300-
EAST


CITY           SKY/WX    TMP DP  RH WIND       PRES   REMARKS
ALBANY         PTCLDY   -13 -26  52 NW8       30.51R WCI -30
GLENS FALLS    PTCLDY   -13 -27  49 NW7       30.48R WCI -29
POUGHKEEPSIE   CLEAR     -6 -23  43 N8        30.49R WCI -21
NEWBURGH       CLEAR     -6 -18  54 NW8       30.43R WCI -21
MONTGOMERY     CLEAR     -5 -21  46 W8        30.44R WCI -20
WHITE PLAINS   CLEAR     -3 -19  46 NW21G29   30.39R WCI -26
ISLIP          PTCLDY     0 -12  57 NW14      30.43R WCI -19
NEW YORK CITY  PTCLDY     1 -12  54 NW16G31   30.49R WCI -19
CENTRAL PARK   CLEAR      0 -18  42 MISG      30.49R
$$

NYZ005>009-017-018-044>046-055-056-141300-
CENTRAL


CITY           SKY/WX    TMP DP  RH WIND       PRES   REMARKS
FULTON         LGT SNOW -15 -23  67 CALM      30.54R
SYRACUSE       CLOUDY   -21 -25  81 E3        30.54
ROME           CLOUDY   -27 -32  77 CALM      30.56R
ELMIRA         CLEAR    -10 -16  74 NW5       30.46R WCI -22
BINGHAMTON     CLOUDY   -18 -24  74 CALM      30.34R
MONTICELLO     CLEAR    -13 -20  70 NW7       30.33R WCI -29
$$

NYZ026>034-041>043-141300-
NORTH


CITY           SKY/WX    TMP DP  RH WIND       PRES   REMARKS
WATERTOWN      CLOUDY   -34  32 100 SE3       30.56R
FORT DRUM      NOT AVBL
MASSENA        CLOUDY   -24 -30  73 SW7       30.55R WCI -42
SARANAC LAKE   CLOUDY   -28 -33  77 SW6       30.27R WCI -45
PLATTSBURGH    CLEAR    -17 -29  54 VRB7      30.47R WCI -33
$$

NYZ001>004-010>016-019>021-141300-
WEST


CITY           SKY/WX    TMP DP  RH WIND       PRES   REMARKS
NIAGARA FALLS  MOCLDY   -11 -19  68 SE3       30.52S
BUFFALO        CLOUDY   -11 -16  78 SE7       30.51R WCI -26
DUNKIRK        MOCLDY    -3 -10  72 SE7       30.50S WCI -16
JAMESTOWN      CLOUDY    -2  -8  78 CALM      30.34R
WELLSVILLE     CLOUDY   -13 -19  75 NW5       30.31R WCI -25
ROCHESTER      PTCLDY   -11 -17  75 W5        30.52S WCI -23
PENN YAN       CLEAR     -7 -14  71 W7        30.46R WCI -21
$$

             KEY
       WCI = WIND CHILL INDEX
       VSB = VISIBILITY
       HX  = HEAT INDEX
$$



USA.gov is the U.S. government's official web portal to all federal, state and local government web resources and services.